sat.trackr.live / text

‹ back to catalog

ONEWEB-0172

NORAD 48071 · 2021-025AF

PAYLOAD ACTIVE UNKNOWN

§ Identity

Operator
Country
UK
Launch date
2021-03-25
Launch site
VOSTO
Launch vehicle
Mass (kg)
RCS (m²)

Purposes: comms

External: N2YO · Heavens-Above · Gunter

§ Orbital elements

Epoch: 2026-09-20T01:37:20.993376Z

Period
109.63 min
Inclination
87.8920°
Eccentricity
0.0001721
Mean motion
13.13471555 rev/d
Perigee alt
1,208.5 km
Apogee alt
1,211.1 km
Semi-major
7,587.9 km
B*
-4.6106e-4
RAAN
301.3474°
Arg perigee
91.7250°
Mean anomaly
268.4077°
Rev number
26,696

§ Raw data

ONEWEB-01721 48071U 21025AF  26263.06760409 -.00000156  00000+0 -46106-3 0  99942 48071  87.8920 301.3474 0001721  91.7250 268.4077 13.13471555266961

JSON: /api/v1/satellites/48071 · /tle

For live sub-satellite position, see the globe view (requires WebGL).

§ Visibility from observer

Set your observer location to see the next 7 days of passes ≥ 10°. The values pass through the URL so the page stays shareable.

No JS? Fill the form by hand. The geolocation button needs JavaScript.